{"data":{"norad_id":40982,"epoch":"2026-05-25T04:24:58.394016Z","epoch_age_seconds":62218,"freshness":"FRESH","line1":"1 40982U 15059A   26145.18400919 -.00000268  00000+0  00000+0 0  9998","line2":"2 40982   0.0583  62.0524 0001553 122.7580 266.2186  1.00270642 38890","mean_motion":1.00270642,"eccentricity":0.0001553,"inclination_deg":0.0583,"raan_deg":62.0524,"arg_perigee_deg":122.758,"mean_anomaly_deg":266.2186,"bstar":0,"rev_number":3889,"period_min":1436.1132743121,"perigee_km":35780.367155991,"apogee_km":35793.463621263,"semimajor_km":42165.052388627,"source":"CELESTRAK","updated_at":"2026-05-25T13:38:13.994822Z"}}